COSMOS 1275 DEB, 42101

Orbit data source: Space-Track

COSMOS 1275 DEB, 42101 is space debris in LEO originally from a launch on Thu, 04 Jun 1981 UTC launched from the Plesetsk Missile And Space Complex (PKMTR). Debris objects in space refer to the collection of defunct objects orbiting the Earth. Examples of debris include non-operational satellites, rocket bodies, and fragments generated from explosions, collisions, or faulty payload assembly.

Loading next visibility...
Identifier
42101, 1981-053PM
Orbit
LEO
Country
Flag of CISCIS
Related business
Manufacturer
Unknown
Mission
Spacecraft
Bus & Motor
Unknown
Mass
Unknown
Launch date (UTC)
1981-06-04 (45 years ago)
Launch vehicle
Unknown
Launch site
Plesetsk Missile And Space Complex (PKMTR)
Object type
Payload
Rocket body
Debris
Shape & HBR
Unknown shape, 0.1 m
Radar Cross Section
Small (<0.1 m²)

Expand to show TLE details & history
Last TLE update: 3 weeks ago

TLE from 3 weeks ago
0 COSMOS 1275 DEB
1 42101U 81053PM  26051.26329485  .00038123  00000-0  37224-2 0  9995
2 42101  82.7620 354.4021 0008763  70.3298 289.8867 14.92195066596413
Epoch: 2026-02-20T06:19Z
TLE epoch observation values (Epoch: 2026-02-20T06:19:08.675Z)
Latitude
-0.00002°
Longitude
109.41321°
Altitude
592.077 km
Speed
7.565 km/s
True Right ascension
23h 37m 36s
True Declination
0° 00' 00"
Sunlit
Object was in daylight at epoch
Visualization orbit readout
Latitude
Unknown
Longitude
Unknown
Altitude
Unknown
Speed
Unknown
Apparent Right ascension
Unknown
Apparent Declination
Unknown
Sunlit
N/A
Visualization observer readout
Local Sidereal Time
17:23:26
Azimuth
Unknown
Elevation
Unknown
Doppler factor
Unknown
Orbital elements
Apogee altitude
594.193 km
Perigee altitude
581.984 km
Semi-major axis
6,966.226 km
Eccentricity
0.00088
Inclination
82.762°
RAAN
354.4021°
Arg. of periapsis
70.3298°
True anomaly
289.79224°
Mean anomaly
289.8867°
Eccentric anomaly
289.83947°
Mean motion
3.7329 °/min
Orbital period
96.44 mins
BSTAR
0.0037224
Loading maneuver chart data...
Computing Atmospheric mass density...
Loading historical data...
Loading historical data...
Loading historical data...
Loading historical data...
Loading historical data...
Loading historical data...
Loading historical data...

Documentation

Showing up to 5 results
|